Theta_e
325 316 307 302 292 290 286 289 291 293 295 301 303 301 303 305 302 297 322 331 336 337 339 342 345 347 348 346 343 341 338 334 331 330 329 328 327 327 327 326 326 326 327 328 329 329 328 327 327
319 313 305 295 288 283 284 288 290 293 299 302 301 301 303 303 311 319 324 335 338 338 338 341 341 346 347 343 341 338 334 331 328 327 326 326 325 324 325 325 324 325 326 327 327 327 327 326 325
315 308 298 293 286 284 286 289 290 298 300 300 301 304 304 307 315 321 328 338 339 338 339 339 342 346 344 341 339 334 330 328 326 325 325 323 322 322 323 324 324 324 325 326 326 326 325 324 323
309 305 298 290 287 289 289 292 295 297 300 303 302 301 306 312 311 322 339 339 337 336 339 340 344 343 340 337 335 331 328 325 324 323 321 321 321 321 323 323 323 323 324 324 324 323 322 322 322
305 300 292 289 287 289 290 293 294 297 298 299 300 300 302 317 327 335 337 336 334 333 338 339 339 339 337 334 331 328 325 323 321 319 321 322 322 321 322 322 321 322 322 323 323 323 323 322 322
299 297 290 287 287 290 291 292 292 294 299 298 302 300 302 317 326 332 333 332 334 334 335 335 331 333 333 331 328 325 323 319 318 320 320 321 321 320 320 320 320 320 321 321 321 321 320 320 321
299 293 290 289 287 289 291 294 293 293 295 297 300 299 303 313 324 330 329 330 331 330 330 330 329 326 325 326 325 323 318 316 318 319 319 319 319 318 318 317 319 320 320 321 320 321 322 321 321
302 297 290 287 287 289 294 295 296 295 295 299 299 299 300 311 325 326 327 327 327 328 327 325 323 319 315 314 319 319 317 316 318 318 317 316 315 316 315 315 317 319 319 320 320 321 322 322 321
303 295 290 290 290 289 293 294 297 298 296 299 305 302 307 320 323 323 325 325 325 325 323 320 317 314 310 309 310 309 312 313 313 313 314 310 308 308 309 312 315 317 317 319 320 322 321 319 317
298 295 292 294 293 293 293 294 293 294 295 295 303 311 317 320 321 320 319 319 319 318 318 317 314 311 308 308 304 304 306 306 307 307 307 307 306 307 309 308 312 313 314 315 319 320 318 314 310
298 295 295 296 297 296 295 294 294 292 292 292 293 308 310 316 318 319 315 315 316 317 319 317 314 309 305 303 304 303 303 304 305 306 307 306 306 305 304 304 304 305 308 306 310 310 310 310 310
295 299 298 299 298 297 295 295 293 292 292 297 298 300 300 300 300 300 301 313 317 318 318 316 312 307 304 303 303 303 304 304 305 306 307 305 304 303 303 303 304 305 306 306 308 309 310 309 310
297 299 300 301 300 297 297 293 292 293 296 298 300 300 299 299 299 301 301 302 310 316 317 314 310 305 304 303 302 303 303 305 305 305 307 306 303 302 303 303 305 305 307 308 309 309 309 309 309
300 299 299 301 301 298 295 293 293 294 297 297 299 298 299 299 299 300 301 302 302 312 314 308 306 303 303 302 303 303 304 305 305 305 305 306 304 303 303 304 308 312 313 311 309 309 308 308 308
301 297 299 300 299 297 296 292 290 294 296 296 297 299 299 300 301 299 300 302 305 310 308 305 304 303 303 303 304 304 305 306 305 304 304 305 305 304 303 307 311 313 313 310 309 309 308 307 308
296 297 290 298 297 297 295 287 292 294 294 293 296 298 299 300 300 301 302 302 303 304 303 303 305 303 304 304 304 305 305 303 303 303 303 304 305 305 306 309 311 313 313 308 308 307 307 307 306
293 288 289 292 297 296 293 289 292 294 294 293 294 296 298 299 300 301 302 303 304 303 303 303 303 303 303 304 305 305 304 303 302 302 303 304 305 307 311 312 312 313 313 308 307 307 305 305 307
285 287 290 289 294 294 290 289 291 292 293 292 294 296 297 298 298 300 300 302 303 304 304 304 304 303 303 303 303 304 304 303 303 302 303 304 305 309 312 313 313 314 313 310 308 306 307 305 306
291 290 290 292 295 293 290 289 290 291 290 291 294 296 296 297 297 297 297 298 299 300 301 302 303 303 303 302 301 302 301 301 302 303 303 304 305 307 312 313 312 313 312 312 312 306 304 304 306
291 289 289 293 293 292 289 287 289 290 289 291 293 294 296 295 296 295 293 294 294 294 296 297 299 301 302 302 302 302 301 303 302 303 303 304 306 309 311 311 311 312 312 312 311 311 307 304 306
287 288 289 290 291 291 289 287 287 288 290 292 292 293 293 293 293 293 292 291 291 291 292 294 296 297 299 302 303 303 303 303 303 305 306 306 310 312 312 313 312 312 312 311 311 311 309 308 306
285 291 293 292 288 283 289 281 284 287 286 289 290 290 290 291 291 291 290 290 289 289 291 292 293 294 297 298 302 305 304 304 306 307 308 309 310 310 311 312 312 313 313 311 311 312 310 310 307
288 291 291 291 289 284 283 281 285 286 284 285 288 289 289 289 289 288 288 289 289 288 289 290 291 291 294 296 298 300 300 300 301 302 303 304 305 305 304 310 310 311 312 313 312 311 311 311 308
293 291 290 289 286 279 282 282 283 282 285 285 286 287 287 288 287 287 288 288 287 287 287 288 288 289 291 292 293 294 294 295 294 296 296 298 299 299 300 303 305 305 305 306 309 311 311 311 310
292 288 282 277 275 276 283 283 285 286 287 287 285 284 284 286 285 285 285 285 285 284 286 287 287 287 288 288 290 291 292 292 291 292 293 293 294 294 295 299 300 299 299 300 303 302 302 304 306
288 288 280 275 275 278 283 280 284 285 286 287 285 284 283 283 283 283 283 283 283 283 284 284 285 284 285 286 285 286 287 287 288 288 289 289 290 292 293 295 295 295 295 296 298 298 297 300 301
286 286 289 283 277 277 280 281 282 283 282 283 282 282 281 282 282 282 282 282 281 281 280 281 281 282 282 282 283 283 283 283 283 283 284 285 286 287 289 291 290 291 290 290 292 293 293 295 296
288 292 284 284 277 275 278 279 282 280 280 281 281 280 281 281 281 281 281 280 280 279 279 280 280 280 281 281 281 281 282 282 282 282 282 283 283 285 285 286 289 286 288 288 287 287 288 290 292
284 283 283 284 281 277 275 278 281 282 283 281 281 281 281 281 280 280 280 279 278 278 278 278 279 279 279 279 280 279 280 280 281 280 280 281 282 282 283 284 285 285 285 286 285 285 286 286 287
285 285 285 280 278 278 279 278 281 283 284 283 281 281 281 281 279 278 278 277 276 276 277 277 278 278 278 278 278 278 278 279 278 278 279 280 280 281 281 282 283 283 284 283 283 283 283 283 283
Wind_Speed
8 4 3 6 5 5 2 3 2 1 2 3 1 3 7 3 2 4 1 5 6 10 6 9 13 12 11 12 12 12 10 7 7 7 8 9 10 10 11 11 11 12 12 13 13 12 12 13 13
5 7 5 3 5 3 5 3 3 1 2 3 3 2 5 3 2 2 3 4 7 8 6 6 9 10 12 13 12 12 8 6 7 7 8 9 9 10 11 11 12 12 12 11 12 13 12 12 13
5 5 3 4 3 4 3 4 2 1 1 1 3 5 2 2 3 4 2 8 8 6 4 7 10 11 13 12 14 10 8 6 6 8 8 9 9 10 10 11 12 12 12 13 13 12 13 13 14
4 5 2 3 2 4 3 3 2 1 1 4 3 5 3 2 1 2 6 8 9 6 4 8 13 13 13 12 12 9 8 6 7 8 9 10 10 9 11 12 12 13 13 14 13 13 13 13 13
3 2 2 1 3 4 4 2 1 1 1 3 1 2 3 3 4 7 8 7 10 5 7 10 14 12 13 11 9 9 8 7 8 9 10 10 10 10 10 11 11 12 12 12 12 12 12 12 14
4 2 2 3 3 4 5 1 0 2 2 1 5 4 2 2 5 5 6 7 7 8 9 9 10 12 13 8 8 9 7 7 8 9 9 9 10 8 10 10 11 11 11 12 12 12 12 13 13
3 1 3 3 2 3 3 4 3 2 1 3 2 4 1 3 5 6 6 7 7 6 7 8 6 11 10 8 8 8 6 6 8 9 9 8 8 8 9 10 11 11 11 12 12 13 13 13 13
3 1 3 1 1 2 5 3 1 3 1 1 3 4 4 4 7 7 7 6 6 5 5 7 6 8 5 5 7 7 5 7 8 9 9 8 8 8 8 9 11 11 11 11 12 13 15 14 13
4 5 1 1 2 5 5 4 5 2 2 4 5 4 2 7 9 7 6 4 4 4 4 4 6 7 4 5 5 7 7 8 7 7 8 6 4 5 6 7 10 11 12 12 14 14 13 13 12
4 4 1 2 1 3 5 3 4 3 5 6 4 7 7 7 7 7 5 5 4 4 2 4 6 6 3 3 5 4 3 3 4 4 5 4 5 5 5 6 10 10 11 11 12 12 12 9 4
3 5 3 4 5 5 5 5 5 4 6 5 4 6 6 6 6 4 1 1 2 3 2 4 5 6 3 3 3 2 2 3 3 5 5 5 4 4 4 3 3 4 6 4 6 6 4 6 5
3 2 2 3 5 6 5 5 8 9 6 7 7 8 7 10 8 6 5 3 4 4 4 3 5 6 4 3 3 3 2 3 3 3 5 4 3 4 4 3 4 4 4 5 4 3 5 6 6
2 3 4 7 6 7 9 10 7 9 8 8 7 14 12 10 8 7 7 5 4 5 6 5 5 5 4 4 3 3 3 3 3 4 5 4 4 4 4 4 4 4 3 3 4 4 5 6 7
4 4 7 6 10 4 5 5 5 7 9 9 12 12 11 12 10 8 10 8 6 2 6 6 6 5 4 3 3 3 3 3 4 4 4 5 3 4 3 4 4 3 3 4 4 4 4 5 5
5 5 5 9 9 5 2 8 6 6 7 9 11 10 12 12 14 12 9 7 6 4 8 6 7 6 6 5 4 3 3 3 4 4 5 5 5 5 4 4 4 4 3 5 5 5 3 4 4
6 5 4 5 6 2 2 1 6 7 8 9 10 10 11 15 14 13 13 12 11 10 9 7 5 7 7 5 4 4 4 4 3 4 4 6 6 5 4 4 4 4 4 4 5 4 5 4 4
4 4 6 4 2 1 3 3 4 7 6 7 8 9 10 13 15 15 15 13 13 10 9 8 7 7 6 5 4 4 5 4 4 4 4 6 5 6 4 4 4 6 5 4 4 4 3 5 9
5 5 5 4 1 8 5 4 5 6 7 6 6 8 11 14 14 13 15 14 13 12 11 8 7 7 4 3 2 3 4 4 4 4 4 6 4 5 4 4 5 5 4 4 5 4 4 3 8
6 1 9 5 3 6 3 3 3 4 5 6 7 9 10 12 9 12 12 12 13 13 12 12 11 9 5 4 2 3 3 3 3 4 6 6 6 6 5 4 6 6 5 6 5 4 5 4 9
5 9 6 4 5 4 5 2 2 4 3 3 6 7 7 9 11 11 12 13 13 11 12 13 11 11 8 3 2 2 1 2 1 3 5 6 6 7 6 5 5 5 6 8 7 6 4 3 5
4 6 5 5 2 3 7 4 6 1 4 5 4 5 8 9 8 10 11 12 10 12 12 10 10 9 9 8 3 3 3 3 4 5 5 6 8 10 10 9 7 6 5 5 6 6 6 4 3
4 9 8 10 1 4 2 5 4 6 6 4 4 5 6 5 8 8 9 11 10 10 9 10 10 10 9 11 7 9 5 5 5 5 6 7 11 12 12 11 10 9 6 7 6 5 4 3 5
6 4 8 10 11 2 2 2 2 5 6 7 6 6 5 7 6 8 8 9 10 10 9 9 9 11 12 11 11 8 9 7 6 8 10 11 10 13 14 13 12 12 9 9 9 9 8 4 3
7 5 8 5 4 3 7 6 5 8 7 8 5 6 5 7 6 7 8 9 9 8 8 9 9 11 11 11 13 12 12 10 9 10 9 8 7 9 14 13 12 12 12 12 11 11 11 8 6
5 5 2 2 1 5 1 4 7 5 4 9 12 8 5 6 7 6 7 8 8 8 9 8 9 11 10 11 12 12 11 11 11 10 8 10 8 9 12 12 13 11 12 12 12 12 13 13 12
5 7 6 6 4 4 2 7 5 3 6 10 10 9 8 7 6 6 7 6 6 7 8 8 9 10 11 11 11 10 12 8 8 9 7 7 7 8 11 11 12 13 14 13 12 9 9 11 11
5 5 4 3 2 2 5 2 1 5 6 9 11 9 8 7 5 6 6 6 6 6 7 7 8 9 10 10 9 10 10 11 9 10 9 7 8 9 11 12 13 13 15 15 13 10 13 11 11
7 9 4 1 3 4 4 5 6 12 14 12 11 10 8 8 7 5 5 5 4 5 5 7 8 9 9 9 9 9 9 10 9 9 11 11 10 11 11 12 12 14 14 14 13 11 13 13 11
4 5 4 6 5 5 2 7 1 4 16 17 13 11 11 9 7 6 6 5 5 5 6 6 7 9 9 8 8 9 9 10 9 10 10 10 10 11 12 12 12 14 14 15 13 14 15 14 14
2 7 8 6 5 4 2 7 4 6 14 14 13 12 10 9 7 6 6 5 5 5 5 6 7 8 8 7 8 9 9 10 11 11 11 10 11 11 11 11 12 13 13 14 15 14 14 15 16
Wind_Direction
331 333 54 41 55 64 272 255 282 210 51 343 63 141 131 71 83 174 4 179 122 141 149 157 163 158 144 118 102 86 87 77 69 55 47 42 30 19 13 10 4 358 355 352 350 349 348 344 339
328 5 34 67 86 69 270 256 222 220 124 151 72 80 50 76 51 98 111 143 137 140 152 157 150 136 121 107 102 91 84 69 56 51 42 31 24 15 10 0 359 355 353 351 346 342 340 340 337
27 49 47 85 104 168 210 243 199 280 351 186 90 54 76 59 41 134 87 124 117 118 158 137 132 111 108 112 99 95 89 74 54 41 34 26 17 10 9 5 1 357 349 342 338 338 338 339 334
70 352 83 79 213 251 212 302 231 48 65 60 118 56 54 7 58 92 116 114 101 102 103 114 108 113 105 102 102 109 97 78 59 43 30 17 12 7 11 8 360 354 347 348 348 346 345 340 335
76 73 311 52 277 270 266 269 218 86 38 39 60 147 63 28 55 99 116 113 113 94 88 98 98 107 103 97 107 104 94 77 61 42 28 19 12 3 2 3 356 348 347 347 352 349 343 338 332
46 162 131 192 251 266 288 275 105 57 16 50 79 106 74 134 107 104 96 97 94 105 102 97 95 96 86 101 104 96 85 74 60 50 28 22 13 15 7 4 350 341 349 347 349 346 348 347 341
87 357 151 111 259 303 310 328 70 89 60 16 135 89 120 128 128 100 87 82 87 89 107 103 96 91 86 86 83 84 79 68 63 52 34 25 26 15 12 7 0 359 357 354 353 357 342 343 346
101 37 138 200 55 307 338 358 17 69 111 55 11 160 162 162 119 97 89 88 87 82 81 106 91 85 89 78 82 68 56 58 56 52 33 28 23 14 12 7 355 360 356 352 351 351 6 354 350
113 65 276 340 53 302 331 20 359 304 89 55 23 34 29 102 107 95 99 79 88 85 82 82 96 94 105 98 67 46 22 38 41 36 30 23 16 6 7 359 358 353 350 354 346 357 5 360 346
116 124 101 316 310 316 317 47 324 23 28 30 55 51 68 90 108 130 143 149 155 142 123 118 103 106 102 93 74 60 29 31 34 26 21 20 19 1 9 0 358 353 350 351 353 357 357 348 325
128 127 205 358 351 333 341 20 19 353 41 31 327 98 45 79 71 78 63 137 218 130 148 120 114 106 100 86 72 57 26 30 23 18 18 17 15 4 1 357 353 338 346 347 350 349 345 337 332
123 144 0 312 350 357 357 333 63 46 325 335 14 73 61 42 33 26 349 282 200 154 147 132 117 114 92 77 66 54 47 40 32 11 16 21 8 5 359 353 342 337 340 337 348 348 333 332 327
43 343 329 338 341 343 69 43 101 35 356 349 40 51 50 41 18 3 347 342 291 173 155 146 114 101 94 75 73 59 38 46 29 17 15 28 15 4 346 350 335 330 331 356 343 345 332 326 329
110 21 339 313 324 300 84 36 113 5 358 6 43 42 43 40 17 3 4 336 343 221 135 123 107 100 92 78 63 55 46 28 39 29 12 18 20 3 11 337 327 338 6 346 341 333 326 321 327
120 110 349 306 330 322 155 37 26 326 33 19 30 40 42 34 33 19 359 343 318 79 101 98 99 95 87 75 62 62 43 48 38 19 12 23 19 359 355 328 341 337 359 353 343 336 324 319 319
90 74 140 253 285 253 36 158 9 6 54 23 22 31 38 38 34 26 24 27 32 59 67 61 69 73 70 63 52 51 42 44 35 31 14 20 13 358 335 347 345 331 348 358 345 334 334 328 325
320 137 185 210 179 337 145 138 10 18 52 43 26 29 40 41 29 27 29 32 33 44 50 52 48 56 61 57 56 57 45 38 32 32 22 12 10 351 345 353 336 342 345 5 349 334 338 329 345
183 153 207 178 101 49 52 102 70 33 49 41 44 47 51 54 31 26 28 28 33 32 40 34 41 33 36 67 60 45 46 31 28 24 22 18 7 0 1 355 345 345 350 356 351 346 334 314 334
163 123 147 267 281 106 96 123 53 71 54 41 50 67 64 56 39 36 28 29 29 27 29 27 27 12 15 21 19 23 16 351 16 15 16 14 3 7 9 13 357 346 359 353 4 336 342 331 349
192 206 195 327 97 98 156 265 52 57 74 70 52 53 64 58 45 40 28 31 26 22 18 23 19 14 16 14 4 42 11 357 359 357 24 17 4 360 10 7 359 351 354 1 358 8 341 332 7
150 184 185 178 128 72 132 222 198 106 116 122 99 84 63 61 54 43 38 33 22 18 14 14 14 11 16 5 8 21 24 8 10 16 21 12 21 19 12 6 3 360 357 359 353 359 6 349 331
187 188 210 186 68 260 173 263 219 168 167 168 128 89 82 85 62 53 45 41 29 11 12 12 18 18 18 17 29 37 44 35 24 19 24 30 28 25 12 11 8 8 3 358 349 348 347 345 3
226 160 161 163 205 322 208 36 232 131 221 190 170 136 107 77 76 58 52 46 34 16 13 9 21 25 23 31 35 42 41 27 26 24 23 24 24 24 14 11 13 12 7 5 357 353 355 352 341
148 81 49 55 101 270 205 161 244 192 202 155 157 146 131 107 84 66 56 52 35 19 15 19 25 28 26 34 37 40 43 35 33 23 24 16 17 15 16 15 16 19 12 8 359 7 8 359 354
93 70 75 326 335 225 200 181 252 173 178 166 162 153 119 99 83 72 59 51 36 22 17 30 28 32 28 37 40 38 44 45 41 30 24 19 14 15 10 11 19 15 12 12 12 19 12 9 8
163 156 159 199 199 222 193 232 243 102 87 108 123 130 113 96 94 80 66 54 40 28 25 28 35 38 33 38 39 38 39 44 42 34 32 29 20 17 9 15 24 22 19 16 16 21 14 11 12
185 188 148 60 116 54 219 281 206 127 122 133 139 139 135 125 104 88 72 61 50 39 34 32 43 46 40 39 44 41 40 44 39 35 37 31 24 20 18 21 28 23 21 18 13 19 14 14 12
160 145 104 115 187 232 256 271 236 202 186 171 165 157 144 132 124 112 91 68 52 47 41 47 49 54 48 46 42 43 38 38 37 37 33 28 24 24 24 25 28 23 25 21 20 15 14 16 17
144 169 174 159 173 189 261 255 39 222 185 172 170 160 156 147 139 127 108 79 62 55 47 50 51 53 49 44 44 45 39 36 40 40 33 27 28 25 26 25 28 31 25 20 20 19 14 14 15
178 180 177 165 223 232 165 270 342 268 167 163 158 154 146 139 134 128 106 101 87 70 59 56 51 52 44 44 49 47 43 38 39 33 30 24 31 29 29 28 29 35 29 25 20 15 16 14 14